| time (UTC) | temp C | wind direction | speed KPH | gust KPH | rain 1hr cm | rain 24hr cm | rain mn cm | humidity % | barometer mb |
| 20260506211537 | 14 | 328 | 1.6 | 6.4 | 0.20 | 0.51 | 0.51 | 96 | 1007.6 |
| 20260506210035 | 14 | 250 | 3.2 | 9.7 | 0.18 | 0.43 | 0.43 | 96 | 1007.6 |
| 20260506204536 | 14 | 73 | 1.6 | 9.7 | 0.13 | 0.36 | 0.36 | 96 | 1007.9 |
| 20260506203034 | 14 | 200 | 3.2 | 6.4 | 0.13 | 0.36 | 0.36 | 95 | 1007.9 |
| 20260506201539 | 14 | 148 | 3.2 | 12.9 | 0.10 | 0.30 | 0.30 | 95 | 1007.9 |
| 20260506200030 | 14 | 219 | 3.2 | 9.7 | 0.05 | 0.25 | 0.25 | 95 | 1008.1 |
| 20260506194529 | 14 | 73 | 3.2 | 6.4 | 0.05 | 0.23 | 0.23 | 95 | 1008.4 |
| 20260506193028 | 14 | 229 | 3.2 | 9.7 | 0.08 | 0.23 | 0.23 | 95 | 1008.5 |
| 20260506191528 | 14 | 264 | 1.6 | 9.7 | 0.13 | 0.20 | 0.20 | 94 | 1008.4 |
| 20260506190029 | 14 | 95 | 3.2 | 14.5 | 0.18 | 0.20 | 0.20 | 93 | 1008.8 |
| 20260506184526 | 15 | 101 | 1.6 | 8.0 | 0.18 | 0.18 | 0.18 | 92 | 1008.5 |
| 20260506183024 | 15 | 92 | 1.6 | 8.0 | 0.15 | 0.15 | 0.15 | 91 | 1008.6 |
| 20260506181522 | 15 | 81 | 1.6 | 6.4 | 0.08 | 0.08 | 0.08 | 89 | 1009.0 |
| 20260506180024 | 16 | 190 | 3.2 | 9.7 | 0.03 | 0.03 | 0.03 | 87 | 1009.2 |
| 20260506174524 | 17 | 238 | 1.6 | 8.0 | 0.00 | 0.00 | 0.00 | 84 | 1009.5 |
| 20260506173018 | 17 | 32 | 3.2 | 14.5 | 0.00 | 0.00 | 0.00 | 80 | 1009.6 |
| 20260506171533 | 18 | 240 | 3.2 | 19.3 | 0.00 | 0.00 | 0.00 | 75 | 1009.7 |
| 20260506170019 | 19 | 200 | 3.2 | 14.5 | 0.00 | 0.00 | 0.00 | 70 | 1009.6 |
| 20260506164522 | 20 | 337 | 4.8 | 16.1 | 0.00 | 0.00 | 0.00 | 70 | 1009.4 |
| 20260506163016 | 20 | 94 | 4.8 | 19.3 | 0.00 | 0.00 | 0.00 | 69 | 1009.5 |
| 20260506161516 | 20 | 159 | 4.8 | 25.7 | 0.00 | 0.00 | 0.00 | 69 | 1009.6 |
| 20260506160016 | 20 | 59 | 3.2 | 9.7 | 0.00 | 0.00 | 0.00 | 68 | 1009.9 |
| 20260506154514 | 20 | 225 | 3.2 | 11.3 | 0.00 | 0.00 | 0.00 | 68 | 1009.9 |
| 20260506153013 | 20 | 130 | 3.2 | 16.1 | 0.00 | 0.00 | 0.00 | 69 | 1010.0 |
| 20260506151511 | 20 | 115 | 4.8 | 14.5 | 0.00 | 0.00 | 0.00 | 67 | 1010.2 |
| 20260506150009 | 20 | 192 | 3.2 | 8.0 | 0.00 | 0.00 | 0.00 | 68 | 1010.2 |
| 20260506144508 | 20 | 160 | 1.6 | 16.1 | 0.00 | 0.00 | 0.00 | 69 | 1010.3 |
| 20260506143003 | 19 | 304 | 6.4 | 20.9 | 0.00 | 0.00 | 0.00 | 73 | 1010.4 |
| 20260506141501 | 18 | 109 | 1.6 | 14.5 | 0.00 | 0.00 | 0.00 | 73 | 1010.6 |
| 20260506140104 | 18 | 140 | 4.8 | 12.9 | 0.00 | 0.00 | 0.00 | 73 | 1010.4 |
| 20260506134559 | 18 | 328 | 6.4 | 16.1 | 0.00 | 0.00 | 0.00 | 74 | 1010.1 |
| 20260506133056 | 18 | 188 | 3.2 | 14.5 | 0.00 | 0.00 | 0.00 | 77 | 1010.2 |
| 20260506131606 | 17 | 44 | 4.8 | 11.3 | 0.00 | 0.00 | 0.00 | 78 | 1010.6 |
| 20260506130054 | 17 | 11 | 3.2 | 14.5 | 0.00 | 0.00 | 0.00 | 80 | 1010.9 |
| 20260506124549 | 17 | 104 | 3.2 | 14.5 | 0.00 | 0.00 | 0.00 | 82 | 1011.0 |
| 20260506123048 | 16 | 176 | 3.2 | 9.7 | 0.00 | 0.00 | 0.00 | 83 | 1011.1 |
| 20260506121540 | 16 | 302 | 0.0 | 9.7 | 0.00 | 0.00 | 0.00 | 86 | 1011.1 |
| 20260506120040 | 15 | 148 | 3.2 | 8.0 | 0.00 | 0.00 | 0.00 | 87 | 1011.3 |
| 20260506114543 | 15 | 303 | 3.2 | 14.5 | 0.00 | 0.00 | 0.00 | 89 | 1011.1 |
| 20260506113038 | 14 | 38 | 1.6 | 8.0 | 0.00 | 0.00 | 0.00 | 90 | 1011.5 |
| 20260506111538 | 13 | 266 | 3.2 | 11.3 | 0.00 | 0.00 | 0.00 | 90 | 1011.7 |
| 20260506110037 | 13 | 110 | 3.2 | 9.7 | 0.00 | 0.00 | 0.00 | 91 | 1011.7 |
| 20260506104537 | 13 | 84 | 1.6 | 11.3 | 0.00 | 0.00 | 0.00 | 92 | 1011.5 |
| 20260506103035 | 13 | 67 | 0.0 | 4.8 | 0.00 | 0.00 | 0.00 | 91 | 1011.5 |
| 20260506101535 | 13 | 78 | 0.0 | 9.7 | 0.00 | 0.00 | 0.00 | 91 | 1011.3 |
| 20260506100034 | 13 | 324 | 1.6 | 8.0 | 0.00 | 0.00 | 0.00 | 91 | 1011.4 |
| 20260506094533 | 13 | 73 | 0.0 | 9.7 | 0.00 | 0.00 | 0.00 | 91 | 1011.3 |
| 20260506093033 | 13 | 242 | 1.6 | 6.4 | 0.00 | 0.00 | 0.00 | 91 | 1011.3 |
| 20260506091533 | 13 | 93 | 3.2 | 11.3 | 0.00 | 0.00 | 0.00 | 90 | 1011.3 |
| 20260506090030 | 13 | 121 | 1.6 | 4.8 | 0.00 | 0.00 | 0.00 | 89 | 1011.4 |
| 20260506084534 | 13 | 43 | 1.6 | 6.4 | 0.00 | 0.00 | 0.00 | 89 | 1011.5 |
| 20260506083029 | 13 | 243 | 0.0 | 4.8 | 0.00 | 0.00 | 0.00 | 89 | 1011.4 |
| 20260506081528 | 13 | 111 | 1.6 | 8.0 | 0.00 | 0.00 | 0.00 | 88 | 1011.6 |
| 20260506073024 | 13 | 141 | 0.0 | 8.0 | 0.00 | 0.00 | 0.00 | 86 | 1011.8 |
| 20260506071523 | 14 | 159 | 0.0 | 6.4 | 0.00 | 0.00 | 0.00 | 85 | 1011.7 |
| 20260506061518 | 15 | 20 | 3.2 | 9.7 | 0.00 | 0.00 | 0.00 | 84 | 1011.5 |
| 20260506044506 | 16 | 76 | 1.6 | 12.9 | 0.00 | 0.00 | 0.00 | 78 | 1012.2 |
| 20260506043008 | 16 | 141 | 4.8 | 14.5 | 0.00 | 0.00 | 0.00 | 77 | 1012.2 |
| 20260506041506 | 16 | 108 | 1.6 | 11.3 | 0.00 | 0.00 | 0.00 | 77 | 1012.2 |
| 20260506040002 | 16 | 345 | 0.0 | 6.4 | 0.00 | 0.00 | 0.00 | 75 | 1012.2 |
| 20260506034503 | 16 | 109 | 1.6 | 9.7 | 0.00 | 0.00 | 0.00 | 75 | 1012.3 |
| 20260506033002 | 16 | 290 | 1.6 | 12.9 | 0.00 | 0.00 | 0.00 | 74 | 1012.3 |
| 20260506031506 | 16 | 185 | 1.6 | 9.7 | 0.00 | 0.00 | 0.00 | 75 | 1012.1 |
| 20260506030002 | 16 | 164 | 0.0 | 11.3 | 0.00 | 0.00 | 0.00 | 75 | 1012.1 |
| 20260506024504 | 15 | 17 | 1.6 | 11.3 | 0.00 | 0.00 | 0.00 | 75 | 1012.1 |
| 20260506023101 | 15 | 5 | 1.6 | 9.7 | 0.00 | 0.00 | 0.00 | 75 | 1012.1 |
| 20260506021608 | 15 | 148 | 1.6 | 6.4 | 0.00 | 0.00 | 0.00 | 75 | 1012.2 |
| 20260506020059 | 15 | 64 | 1.6 | 4.8 | 0.00 | 0.00 | 0.00 | 74 | 1012.2 |
| 20260506014612 | 16 | 187 | 3.2 | 9.7 | 0.00 | 0.00 | 0.00 | 73 | 1012.3 |
| 20260506013102 | 16 | 151 | 3.2 | 16.1 | 0.00 | 0.00 | 0.00 | 72 | 1011.9 |
| 20260506011558 | 16 | 101 | 3.2 | 6.4 | 0.00 | 0.00 | 0.00 | 71 | 1011.8 |
| 20260506010106 | 16 | 137 | 1.6 | 4.8 | 0.00 | 0.00 | 0.00 | 70 | 1011.7 |
| 20260506004557 | 16 | 132 | 3.2 | 11.3 | 0.00 | 0.00 | 0.00 | 69 | 1011.4 |
| 20260506003056 | 17 | 167 | 1.6 | 9.7 | 0.00 | 0.00 | 0.00 | 69 | 1011.3 |
| 20260506001600 | 17 | 294 | 3.2 | 11.3 | 0.00 | 0.00 | 0.00 | 67 | 1011.0 |
| 20260506000059 | 17 | 139 | 3.2 | 9.7 | 0.00 | 0.00 | 0.00 | 67 | 1010.7 |
| 20260505234554 | 18 | 303 | 1.6 | 8.0 | 0.00 | 0.00 | 0.00 | 65 | 1010.5 |
| 20260505233107 | 18 | 119 | 3.2 | 9.7 | 0.00 | 0.00 | 0.00 | 64 | 1010.2 |
| 20260505231554 | 19 | 304 | 3.2 | 14.5 | 0.00 | 0.00 | 0.00 | 63 | 1010.0 |
| 20260505230054 | 20 | 128 | 1.6 | 19.3 | 0.00 | 0.00 | 0.00 | 61 | 1009.8 |
| 20260505224553 | 20 | 169 | 4.8 | 9.7 | 0.00 | 0.00 | 0.00 | 59 | 1009.5 |
| 20260505223052 | 21 | 123 | 3.2 | 12.9 | 0.00 | 0.00 | 0.00 | 57 | 1009.3 |
| 20260505221600 | 21 | 72 | 6.4 | 25.7 | 0.00 | 0.00 | 0.00 | 55 | 1009.1 |
| 20260505220053 | 22 | 205 | 3.2 | 12.9 | 0.00 | 0.00 | 0.00 | 55 | 1009.3 |
| 20260505214550 | 22 | 23 | 4.8 | 11.3 | 0.00 | 0.00 | 0.00 | 53 | 1009.3 |
| 20260505213051 | 22 | 340 | 4.8 | 14.5 | 0.00 | 0.00 | 0.00 | 54 | 1009.3 |